Location: Knowlton
(51.2333°N, 1.2667°E)
Time: 10:50:54
(UTC+00:00)

Cosmos 1812 Rocket - Pass Details

Date: 18 April 2021
Orbit: 605 x 632 km, 82.5° (Epoch: 16 May)

Event Time Altitude Azimuth Distance (km) Brightness Sun altitude
Exits shadow 20:47:56 14° 183° (S) 1,733 5.5 -15.8°
Maximum altitude 20:51:42 78° 99° (E) 651 3.5 -16.2°
Drops below altitude 10° 20:56:11 10° 13° (NNE) 2,025 6.6 -16.7°
Sets 20:58:26 0° 12° (NNE) 2,939 7.5 -17.0°
